Location: Ambatotampy
(18.8181°S, 47.6186°E)
Time: 23:23:06
(UTC+00:00)

SL-14 R/B - Pass Details

Date: 21 January 2021
Orbit: 520 x 552 km, 82.4° (Epoch: 24 February)

Event Time Altitude Azimuth Distance (km) Brightness Sun altitude
Rises 01:35:52 0° 7° (N) 2,710 6.7 -12.3°
Reaches altitude 10° 01:38:04 10° 13° (NNE) 1,823 5.8 -11.8°
Maximum altitude 01:41:55 46° 87° (E) 746 4.5 -11.0°
Drops below altitude 10° 01:45:48 10° 161° (SSE) 1,835 6.7 -10.2°
Sets 01:48:02 0° 166° (SSE) 2,731 7.5 -9.7°
